W5TTY Weather Reports


Display with metric or nautical units.
time (UTC)temp
F
wind
direction
speed
MPH
gust
MPH
rain 1hr
in
rain 24hr
in
rain mn
in
humidity
%
barometer
mb
20260506181821 68 50 4.0 11.0 0.00 0.00 0.00 89 1010.4
20260506181326 67 84 7.0 11.0 0.00 0.00 0.00 89 1010.7
20260506180836 67 77 4.0 10.0 0.00 0.00 0.00 89 1010.7
20260506180343 66 112 4.0 13.0 0.00 0.00 0.00 89 1010.8
20260506175836 66 57 6.0 13.0 0.00 0.00 0.00 89 1010.8
20260506175339 65 42 6.0 14.0 0.00 0.00 0.00 89 1010.9
20260506174844 65 61 8.0 15.0 0.00 0.00 0.00 89 1011.0
20260506174327 64 67 10.0 17.0 0.00 0.00 0.00 89 1011.0
20260506173834 64 51 7.0 15.0 0.00 0.00 0.00 89 1011.1
20260506173321 64 26 8.0 18.0 0.00 0.00 0.00 88 1011.2
20260506172846 63 349 11.0 19.0 0.00 0.00 0.00 88 1011.2
20260506172337 63 30 12.0 20.0 0.00 0.00 0.00 88 1011.3
20260506171842 63 355 11.0 20.0 0.00 0.00 0.00 88 1011.5
20260506171318 63 9 11.0 16.0 0.00 0.00 0.00 88 1011.9
20260506170830 62 323 8.0 19.0 0.00 0.00 0.00 88 1012.2
20260506170337 62 340 9.0 19.0 0.00 0.00 0.00 88 1012.5
20260506165824 63 342 10.0 18.0 0.00 0.00 0.00 88 1012.6
20260506165348 63 313 9.0 19.0 0.00 0.00 0.00 88 1012.9
20260506164828 63 360 13.0 23.0 0.00 0.00 0.00 87 1013.0
20260506164333 64 337 14.0 23.0 0.00 0.00 0.00 87 1013.0
20260506163818 64 333 12.0 25.0 0.00 0.00 0.00 88 1012.9
20260506163347 65 321 15.0 25.0 0.00 0.00 0.00 87 1012.9
20260506162829 66 275 13.0 20.0 0.00 0.00 0.00 88 1013.0
20260506162333 66 288 12.0 20.0 0.00 0.00 0.00 88 1012.6
20260506161818 67 317 9.0 17.0 0.00 0.00 0.00 87 1012.4
20260506161323 69 316 8.0 18.0 0.00 0.00 0.00 87 1012.4
20260506160825 70 317 10.0 21.0 0.00 0.00 0.00 86 1012.2
20260506160328 73 308 11.0 24.0 0.00 0.00 0.00 86 1012.1
20260506155832 76 339 15.0 24.0 0.00 0.00 0.00 86 1011.7
20260506155405 78 322 5.0 15.0 0.00 0.00 0.00 89 1011.1
20260506154827 77 186 2.0 4.0 0.00 0.00 0.00 89 1010.7
20260506154330 77 138 2.0 4.0 0.00 0.00 0.00 89 1010.5
20260506153818 77 125 0.0 4.0 0.00 0.00 0.00 89 1010.4
20260506153346 77 125 2.0 4.0 0.00 0.00 0.00 89 1010.3
20260506152828 77 118 1.0 3.0 0.00 0.00 0.00 89 1010.4
20260506152334 77 118 1.0 3.0 0.00 0.00 0.00 89 1010.4
20260506151837 77 193 1.0 6.0 0.00 0.00 0.00 88 1010.3
20260506151342 77 193 2.0 6.0 0.00 0.00 0.00 88 1010.4
20260506150826 77 163 1.0 5.0 0.00 0.00 0.00 88 1010.5
20260506150332 77 155 1.0 3.0 0.00 0.00 0.00 89 1010.3
20260506145838 77 153 1.0 3.0 0.00 0.00 0.00 88 1010.2
20260506145322 76 153 1.0 3.0 0.00 0.00 0.00 88 1010.2
20260506144828 76 153 1.0 2.0 0.00 0.00 0.00 88 1010.3
20260506144334 76 153 1.0 2.0 0.00 0.00 0.00 88 1010.4
20260506143821 76 153 0.0 3.0 0.00 0.00 0.00 88 1010.2
20260506143329 76 153 1.0 3.0 0.00 0.00 0.00 88 1010.5
20260506142833 76 150 0.0 5.0 0.00 0.00 0.00 88 1010.3
20260506142407 76 151 1.0 5.0 0.00 0.00 0.00 88 1010.1
20260506141829 76 151 2.0 6.0 0.00 0.00 0.00 88 1009.9
20260506141335 76 153 3.0 6.0 0.00 0.00 0.00 88 1009.9
20260506140821 76 154 2.0 5.0 0.00 0.00 0.00 88 1009.9
20260506140327 76 157 3.0 5.0 0.00 0.00 0.00 88 1009.8
20260506135827 76 175 1.0 4.0 0.00 0.00 0.00 88 1009.7
20260506135334 76 175 2.0 4.0 0.00 0.00 0.00 88 1009.7
20260506134822 76 175 0.0 2.0 0.00 0.00 0.00 88 1009.7
20260506134325 76 177 1.0 3.0 0.00 0.00 0.00 88 1009.8
20260506133829 76 177 2.0 4.0 0.00 0.00 0.00 88 1009.8
20260506133333 76 177 2.0 4.0 0.00 0.00 0.00 88 1009.7
20260506132845 76 184 1.0 3.0 0.00 0.00 0.00 88 1009.6
20260506132327 75 184 0.0 3.0 0.00 0.00 0.00 87 1009.6
20260506131854 75 184 1.0 3.0 0.00 0.00 0.00 87 1009.6
20260506131340 75 184 1.0 3.0 0.00 0.00 0.00 87 1009.5
20260506130824 75 185 0.0 2.0 0.00 0.00 0.00 87 1009.6
20260506130329 75 185 0.0 2.0 0.00 0.00 0.00 87 1009.6
20260506125842 75 185 1.0 2.0 0.00 0.00 0.00 87 1009.6
20260506125349 75 185 0.0 2.0 0.00 0.00 0.00 87 1009.6
20260506124835 75 185 0.0 2.0 0.00 0.00 0.00 87 1009.5
20260506124320 75 185 1.0 2.0 0.00 0.00 0.00 87 1009.4
20260506123823 75 185 1.0 2.0 0.00 0.00 0.00 87 1009.3
20260506123331 75 186 1.0 3.0 0.00 0.00 0.00 87 1009.3
20260506122839 75 186 1.0 3.0 0.00 0.00 0.00 87 1009.1
20260506122323 74 186 0.0 2.0 0.00 0.00 0.00 87 1009.2
20260506121852 74 186 0.0 0.0 0.00 0.00 0.00 87 1009.2
20260506121318 74 186 0.0 2.0 0.00 0.00 0.00 87 1009.2
20260506120820 74 186 1.0 2.0 0.00 0.00 0.00 87 1009.3
20260506120351 74 186 0.0 2.0 0.00 0.00 0.00 87 1009.3
20260506115834 75 186 0.0 2.0 0.00 0.00 0.00 87 1009.3
20260506115317 75 186 0.0 2.0 0.00 0.00 0.00 87 1009.2
20260506114819 75 186 0.0 4.0 0.00 0.00 0.00 87 1009.3
20260506114322 75 186 1.0 5.0 0.00 0.00 0.00 87 1009.3
20260506113834 75 184 2.0 5.0 0.00 0.00 0.00 87 1009.2
20260506113341 75 178 2.0 4.0 0.00 0.00 0.00 87 1009.1
20260506112822 75 164 0.0 5.0 0.00 0.00 0.00 87 1009.0
20260506112322 75 161 2.0 5.0 0.00 0.00 0.00 87 1009.0
20260506111827 75 193 2.0 4.0 0.00 0.00 0.00 87 1008.9
20260506111341 75 199 1.0 4.0 0.00 0.00 0.00 87 1008.9
20260506110847 75 199 1.0 6.0 0.00 0.00 0.00 87 1008.9
20260506110350 75 199 1.0 6.0 0.00 0.00 0.00 87 1008.8
20260506032832 77 205 3.0 11.0 0.00 0.00 0.00 80 1007.5
20260506032405 77 167 5.0 11.0 0.00 0.00 0.00 80 1007.5
20260506031831 78 175 6.0 10.0 0.00 0.00 0.00 80 1007.4
20260506031340 78 175 4.0 10.0 0.00 0.00 0.00 80 1007.4
20260506030828 78 165 4.0 8.0 0.00 0.00 0.00 80 1007.3
20260506030332 78 139 4.0 13.0 0.00 0.00 0.00 80 1007.3
20260506025829 78 164 5.0 13.0 0.00 0.00 0.00 80 1007.2
20260506025328 78 140 4.0 10.0 0.00 0.00 0.00 80 1007.1
20260506024842 78 136 5.0 10.0 0.00 0.00 0.00 80 1007.0
20260506024329 78 159 5.0 10.0 0.00 0.00 0.00 79 1007.0
20260506023832 78 149 3.0 12.0 0.00 0.00 0.00 80 1006.9
20260506023320 78 138 5.0 11.0 0.00 0.00 0.00 79 1006.8
20260506022833 78 176 3.0 12.0 0.00 0.00 0.00 79 1006.8
20260506022318 79 164 4.0 12.0 0.00 0.00 0.00 79 1006.8
20260506021851 79 157 4.0 10.0 0.00 0.00 0.00 79 1006.7
20260506021332 79 223 4.0 10.0 0.00 0.00 0.00 79 1006.6
20260506020844 79 194 3.0 9.0 0.00 0.00 0.00 79 1006.7
20260506020328 79 165 4.0 8.0 0.00 0.00 0.00 79 1006.7
20260506015845 79 182 3.0 9.0 0.00 0.00 0.00 79 1006.7
20260506015329 79 178 4.0 9.0 0.00 0.00 0.00 79 1006.6
20260506014836 79 171 3.0 8.0 0.00 0.00 0.00 79 1006.5
20260506014320 79 186 4.0 8.0 0.00 0.00 0.00 79 1006.5
20260506013834 79 182 2.0 5.0 0.00 0.00 0.00 79 1006.6
20260506013342 79 173 3.0 11.0 0.00 0.00 0.00 78 1006.4
20260506012834 79 184 3.0 11.0 0.00 0.00 0.00 78 1006.4
20260506012341 79 163 4.0 12.0 0.00 0.00 0.00 79 1006.2
20260506011832 79 179 4.0 9.0 0.00 0.00 0.00 78 1006.2
20260506011358 80 199 3.0 9.0 0.00 0.00 0.00 78 1006.1
20260506010831 80 181 5.0 11.0 0.00 0.00 0.00 78 1006.0
20260506010319 80 214 5.0 12.0 0.00 0.00 0.00 78 1006.0
20260506005828 80 150 7.0 12.0 0.00 0.00 0.00 78 1005.8
20260506005339 80 196 5.0 14.0 0.00 0.00 0.00 78 1005.6
20260506004828 80 187 6.0 14.0 0.00 0.00 0.00 78 1005.5
20260506004326 80 169 7.0 19.0 0.00 0.00 0.00 78 1005.5
20260506003843 81 186 6.0 19.0 0.00 0.00 0.00 78 1005.3
20260506003328 81 160 6.0 17.0 0.00 0.00 0.00 78 1005.2
20260506002834 81 223 5.0 15.0 0.00 0.00 0.00 78 1005.2
20260506002326 81 173 8.0 14.0 0.00 0.00 0.00 78 1005.2
20260506001835 81 161 7.0 17.0 0.00 0.00 0.00 78 1005.3
20260506001348 82 171 7.0 17.0 0.00 0.00 0.00 78 1005.3
20260506000835 82 205 7.0 12.0 0.00 0.00 0.00 78 1005.3
20260506000323 82 199 5.0 10.0 0.00 0.00 0.00 78 1005.3
20260505235836 82 200 4.0 13.0 0.00 0.00 0.00 78 1005.1
20260505235322 82 234 6.0 13.0 0.00 0.00 0.00 78 1005.0
20260505234837 82 146 5.0 15.0 0.00 0.00 0.00 78 1005.0
20260505234345 83 145 6.0 17.0 0.00 0.00 0.00 78 1005.0
20260505233838 83 203 8.0 16.0 0.00 0.00 0.00 79 1004.9
20260505233325 83 182 7.0 15.0 0.00 0.00 0.00 79 1004.9
20260505232830 83 192 7.0 15.0 0.00 0.00 0.00 79 1004.8
20260505232321 83 198 6.0 14.0 0.00 0.00 0.00 79 1004.9
20260505231828 83 151 5.0 12.0 0.00 0.00 0.00 79 1004.9
20260505231354 84 190 6.0 15.0 0.00 0.00 0.00 79 1004.9
20260505230819 84 102 7.0 13.0 0.00 0.00 0.00 79 1004.9
20260505230332 84 191 8.0 16.0 0.00 0.00 0.00 79 1004.9
20260505225837 84 169 6.0 20.0 0.00 0.00 0.00 79 1004.9
20260505225323 84 145 7.0 20.0 0.00 0.00 0.00 79 1004.8
20260505224835 84 176 10.0 21.0 0.00 0.00 0.00 79 1004.9
20260505224320 84 201 6.0 19.0 0.00 0.00 0.00 80 1004.9
20260505223828 85 221 10.0 19.0 0.00 0.00 0.00 80 1004.9
20260505223337 84 138 9.0 19.0 0.00 0.00 0.00 80 1005.0
20260505222852 84 199 9.0 18.0 0.00 0.00 0.00 80 1005.0
20260505222402 85 221 8.0 18.0 0.00 0.00 0.00 80 1005.1
20260505221849 85 209 8.0 17.0 0.00 0.00 0.00 80 1005.0
20260505221339 85 169 7.0 17.0 0.00 0.00 0.00 80 1005.1
20260505220852 85 142 8.0 19.0 0.00 0.00 0.00 81 1005.2
20260505220320 85 229 7.0 21.0 0.00 0.00 0.00 81 1005.2
20260505215823 85 207 11.0 21.0 0.00 0.00 0.00 81 1005.1
20260505215332 85 233 8.0 17.0 0.00 0.00 0.00 81 1005.3
20260505214817 85 212 6.0 15.0 0.00 0.00 0.00 81 1005.4
20260505214321 85 141 7.0 17.0 0.00 0.00 0.00 82 1005.4
20260505213853 85 180 8.0 17.0 0.00 0.00 0.00 82 1005.4
20260505213347 85 172 10.0 17.0 0.00 0.00 0.00 82 1005.4
20260505212833 85 187 7.0 16.0 0.00 0.00 0.00 82 1005.5
20260505212337 84 211 6.0 15.0 0.00 0.00 0.00 82 1005.5
20260505211822 85 207 7.0 14.0 0.00 0.00 0.00 82 1005.6
20260505211333 85 135 10.0 14.0 0.00 0.00 0.00 82 1005.7
20260505210833 85 173 9.0 16.0 0.00 0.00 0.00 83 1005.7
20260505210319 85 197 9.0 18.0 0.00 0.00 0.00 83 1005.8
20260505205832 84 238 6.0 17.0 0.00 0.00 0.00 83 1005.9
20260505205336 84 225 7.0 14.0 0.00 0.00 0.00 83 1006.1
20260505204820 84 211 8.0 19.0 0.00 0.00 0.00 83 1006.3
20260505204331 84 211 12.0 19.0 0.00 0.00 0.00 83 1006.5
20260505203838 84 219 6.0 17.0 0.00 0.00 0.00 84 1006.5
20260505203324 84 219 9.0 19.0 0.00 0.00 0.00 84 1006.5
20260505202838 84 172 9.0 19.0 0.00 0.00 0.00 84 1006.6
20260505202325 84 202 11.0 17.0 0.00 0.00 0.00 84 1006.6
20260505201831 84 222 8.0 20.0 0.00 0.00 0.00 84 1006.7
20260505201337 84 220 12.0 20.0 0.00 0.00 0.00 84 1006.7
20260505200828 84 248 11.0 20.0 0.00 0.00 0.00 85 1006.8
20260505200333 83 222 7.0 22.0 0.00 0.00 0.00 85 1006.8
20260505195824 83 240 13.0 22.0 0.00 0.00 0.00 85 1006.9
20260505195331 83 232 10.0 18.0 0.00 0.00 0.00 85 1006.9
20260505194845 83 200 11.0 24.0 0.00 0.00 0.00 85 1007.1
20260505194330 83 240 9.0 24.0 0.00 0.00 0.00 85 1007.0
20260505193842 83 221 9.0 25.0 0.00 0.00 0.00 85 1007.1
20260505193356 83 194 12.0 25.0 0.00 0.00 0.00 85 1007.2
20260505192823 83 240 10.0 19.0 0.00 0.00 0.00 85 1007.3
20260505192323 82 208 7.0 27.0 0.00 0.00 0.00 86 1007.3
20260505191854 82 202 9.0 27.0 0.00 0.00 0.00 86 1007.3
20260505191344 82 229 8.0 19.0 0.00 0.00 0.00 86 1007.4
20260505190826 82 211 12.0 20.0 0.00 0.00 0.00 86 1007.5
20260505190338 81 230 11.0 18.0 0.00 0.00 0.00 86 1007.5
20260505185847 81 227 9.0 19.0 0.00 0.00 0.00 86 1007.6
20260505185330 81 218 9.0 21.0 0.00 0.00 0.00 86 1007.6
20260505184817 81 208 10.0 23.0 0.00 0.00 0.00 86 1007.6
20260505184323 81 182 6.0 23.0 0.00 0.00 0.00 86 1007.7
20260505183839 81 195 8.0 19.0 0.00 0.00 0.00 86 1007.6
20260505183345 80 209 9.0 20.0 0.00 0.00 0.00 86 1007.6
20260505182834 80 232 8.0 21.0 0.00 0.00 0.00 86 1007.6
20260505182320 80 252 11.0 21.0 0.00 0.00 0.00 86 1007.7